NOAA 18 (28654 NORAD) Tracking and Keplerian Element Data

This shows tracking and keplerian element data for the satellite.

Feedback or suggestion? Click here.




ElementValue
Catalog28654
NameNOAA 18
Epoch Orbit98199
Epoch Day160.21657871
Epoch Year2024
RAAN237.2558
Inclination98.8744
Eccentricity0.0015365
Argument of Perigee89.7252
Mean Anonmoly270.568
Mean Motion14.132258
Decay Rate4.31E-06
L11 28654U 05018A 24160.21657871 .00000431 00000+0 25342-3 0 9995
L22 28654 98.8744 237.2558 0015365 89.7252 270.5680 14.13225800981992



Live tracking and technical data element details for NOAA 18 (NORAD 28654). NOAA 18 can be tracked NOW for your location showing map with azimuth and elevation plus other details from your city location.







IsCatalogInMostPopularTable: catalog: 28654, numindb: 1916
Update: records affected: 1



GetName: 28654 NOAA 18

Hit Count: updated at: Tue, 17 Sep 2024 11:26:59 GMT